Regional Weather Roundup
Issued by NWS Albany, NY

Home | Current Version | Previous Version | Text Only | Print | Product List | Glossary On
Versions: 1 2 3 4 5 6 7 8 9 10 11 12 13 14 15 16 17 18 19 20 21 22 23 24 25 26 27 28 29 30 31 32 33 34 35 36 37 38 39 40 41 42 43 44 45 46 47 48 49 50
000
ASUS41 KALY 242310
RWRALY

NEW YORK STATE HOURLY WEATHER ROUNDUP
NATIONAL WEATHER SERVICE ALBANY NY
700 PM EDT SUN MAY 24 2015

NOTE: "FAIR" INDICATES FEW OR NO CLOUDS BELOW 12,000 FEET WITH NO
SIGNIFICANT WEATHER AND/OR NO OBSTRUCTIONS TO VISIBILITY.

NYZ032-033-038>043-046>054-057>066-NYZ062>081-250000-
EAST


CITY           SKY/WX    TMP DP  RH WIND       PRES   REMARKS
ALBANY         PTSUNNY   77  41  27 W7        30.17S
GLENS FALLS    PTSUNNY   76  38  25 SW13      30.14S
POUGHKEEPSIE   PTSUNNY   79  37  22 SW5       30.18F
NEWBURGH       MOSUNNY   75  45  33 W6        30.22
MONTGOMERY     PTSUNNY   73  52  47 CALM      30.20S
WHITE PLAINS   CLOUDY    69  51  52 S10       30.23S
ISLIP          CLOUDY    63  47  55 SW15G23   30.26R
NEW YORK CITY  CLOUDY    72  50  45 S12       30.22F
CENTRAL PARK   PTSUNNY   74  50  42 CALM      30.25F
$$

NYZ005>009-017-018-044>046-055-056-250000-
CENTRAL


CITY           SKY/WX    TMP DP  RH WIND       PRES   REMARKS
FULTON         CLOUDY    75  43  31 SW5       30.16F
SYRACUSE       PTSUNNY   77  40  26 W9        30.16F
ROME           PTSUNNY   74  41  30 SW7       30.18F
ELMIRA         CLOUDY    76  47  35 W5        30.19S
BINGHAMTON     CLOUDY    72  39  30 SW3       30.22F
MONTICELLO     PTSUNNY   73  37  27 W6        30.25S
$$

NYZ026>034-041>043-250000-
NORTH


CITY           SKY/WX    TMP DP  RH WIND       PRES   REMARKS
WATERTOWN      PTSUNNY   69  47  45 W5        30.14F
FORT DRUM      NOT AVBL
MASSENA        MOSUNNY   75  39  27 SW18G30   30.07S
PLATTSBURGH    MOSUNNY   78  35  21 W9G21     30.06S
$$

NYZ001>004-010>016-019>021-250000-
WEST


CITY           SKY/WX    TMP DP  RH WIND       PRES   REMARKS
NIAGARA FALLS  CLOUDY    74  45  35 SW14      30.16F
BUFFALO        CLOUDY    69  45  41 SW9       30.19S
DUNKIRK        CLOUDY    72  46  39 SW5       30.20F
JAMESTOWN      CLOUDY    72  46  40 CALM      30.24F
WELLSVILLE     CLOUDY    72  45  37 N3        30.26S
ROCHESTER      CLOUDY    76  44  32 W10       30.17F
PENN YAN       CLOUDY    76  46  34 W5        30.20S
$$

             KEY
       WCI = WIND CHILL INDEX
       VSB = VISIBILITY
       HX  = HEAT INDEX
$$


USA.gov is the U.S. government's official web portal to all federal, state and local government web resources and services.